AMAZONAS 2

Last updated on Thu Nov 21 2024 00:02:41 GMT+0000 (Coordinated Universal Time)

1 35942U 09054A 24325.28315867 -.00000281 00000+0 00000+0 0 9997 2 35942 0.3249 92.7865 0004946 151.1895 216.9612 1.00269780 55430
UTC large
Height (km)
Speed (km/s)
/
Latitude / Longitude
Inclination (degrees)
Orbital Period (minutes)
Azimuth
Elevation
Range (km)
Doppler Factor

Next 0 passes for location: London (51.5072 / 0.1276)

Sorry there are no passes over London.